Date String (YYYY-MM-DD hh:mm:ss) UTC,Instrument flags,Ambient pressure (hPa),Sample flow (lpm),Bypass flow (lpm),Sample temperature (°C),Ambient temperature (°C),ASC tube jacket temperature (°C),LED temperature (°C),Box temperature (°C),Sample RH (%),Span deviation,Mass concentration (μg/m³),Mass concentration (μg/m³),Mass concentration (μg/m³)
DateTimeUTC,F1_M11,P_M11,Q1_M11,Q2_M11,T1_M11,T2_M11,T3_M11,T4_M11,T5_M11,U1_M11,ZSPAN_M11,X0_M11,X2_M11,X1_M11
2022-12-16 13:00:00,,0822.6,5.03,0.00,21.9,21.5,00.0,30.7,23.8,03.5,0000.0,0002.37,0001.49,0001.24
2022-12-16 13:01:00,,0822.6,4.97,0.00,21.9,21.0,00.0,30.7,23.6,03.4,0000.0,0002.35,0001.48,0001.25
2022-12-16 13:02:00,,0822.7,5.02,0.00,21.8,20.7,00.0,30.7,23.5,03.4,0000.0,0002.33,0001.45,0001.24
2022-12-16 13:03:00,,0822.7,4.99,0.00,21.8,20.4,00.0,30.7,23.4,03.4,0000.0,0002.39,0001.45,0001.24
2022-12-16 13:04:00,,0822.7,4.98,0.00,21.7,20.2,00.0,30.7,23.4,03.5,0000.0,0002.30,0001.45,0001.24
2022-12-16 13:05:00,,0822.7,5.04,0.00,21.7,20.0,00.0,30.7,23.3,03.5,0000.0,0002.30,0001.44,0001.25
2022-12-16 13:06:00,,0822.8,4.99,0.00,21.7,19.9,00.0,30.6,23.3,03.5,0000.0,0002.35,0001.45,0001.25
2022-12-16 13:07:00,,0822.8,4.98,0.00,21.6,20.2,00.0,30.6,23.3,03.6,0000.0,0002.36,0001.45,0001.24
2022-12-16 13:08:00,,0822.8,5.00,0.00,21.7,21.3,00.0,30.6,23.6,03.6,0000.0,0002.46,0001.50,0001.25
2022-12-16 13:09:00,,0822.8,5.01,0.00,21.8,22.0,00.0,30.6,23.8,03.6,0000.0,0002.43,0001.51,0001.27
2022-12-16 13:10:00,,0822.8,5.00,0.00,21.9,21.6,00.0,30.6,23.7,03.6,0000.0,0002.35,0001.49,0001.27
2022-12-16 13:11:00,,0822.8,5.03,0.00,21.9,20.9,00.0,30.6,23.6,03.6,0000.0,0002.18,0001.47,0001.26
2022-12-16 13:12:00,,0822.8,4.97,0.00,21.8,20.4,00.0,30.7,23.4,03.5,0000.0,0002.66,0001.49,0001.25
2022-12-16 13:13:00,,0822.8,4.97,0.00,21.7,19.9,00.0,30.6,23.2,03.5,0000.0,0003.03,0001.51,0001.25
2022-12-16 13:14:00,,0822.8,5.04,0.00,21.6,19.6,00.0,30.6,23.1,03.6,0000.0,0003.28,0001.53,0001.25
2022-12-16 13:15:00,,0822.8,4.96,0.00,21.5,19.3,00.0,30.6,23.0,03.4,0000.0,0003.26,0001.52,0001.25
2022-12-16 13:16:00,,0822.8,5.04,0.00,21.5,19.5,00.0,30.5,23.0,03.5,0000.0,0003.24,0001.52,0001.24
2022-12-16 13:17:00,,0822.8,4.99,0.00,21.5,20.6,00.0,30.5,23.2,03.5,0000.0,0003.15,0001.51,0001.24
2022-12-16 13:18:00,,0822.8,5.00,0.00,21.6,21.6,00.0,30.5,23.5,03.6,0000.0,0003.18,0001.52,0001.25
2022-12-16 13:19:00,,0822.8,5.01,0.00,21.7,21.8,00.0,30.5,23.6,03.6,0000.0,0003.90,0001.52,0001.24
2022-12-16 13:20:00,,0823.0,5.00,0.00,21.7,21.2,00.0,30.5,23.5,03.6,0000.0,0004.00,0001.53,0001.22
2022-12-16 13:21:00,,0822.9,4.98,0.00,21.7,20.5,00.0,30.6,23.3,03.6,0000.0,0004.17,0001.57,0001.22
2022-12-16 13:22:00,,0822.8,5.04,0.00,21.6,20.1,00.0,30.5,23.1,03.6,0000.0,0004.17,0001.58,0001.22
2022-12-16 13:23:00,,0822.8,4.97,0.00,21.5,19.6,00.0,30.5,23.0,03.6,0000.0,0003.75,0001.54,0001.21
2022-12-16 13:24:00,,0822.8,5.03,0.00,21.4,19.3,00.0,30.5,22.8,03.6,0000.0,0003.33,0001.53,0001.22
2022-12-16 13:25:00,,0822.9,4.97,0.00,21.3,19.3,00.0,30.4,22.8,03.6,0000.0,0003.19,0001.50,0001.22
2022-12-16 13:26:00,,0822.9,5.04,0.00,21.4,20.6,00.0,30.4,23.1,03.6,0000.0,0004.35,0001.53,0001.22
2022-12-16 13:27:00,,0822.9,4.95,0.00,21.5,21.5,00.0,30.4,23.4,03.6,0000.0,0004.34,0001.52,0001.23
2022-12-16 13:28:00,,0822.9,5.00,0.00,21.6,21.2,00.0,30.4,23.4,03.6,0000.0,0004.33,0001.52,0001.23
2022-12-16 13:29:00,,0823.0,5.04,0.00,21.6,20.8,00.0,30.4,23.3,03.7,0000.0,0004.30,0001.50,0001.23
2022-12-16 13:30:00,,0823.0,4.96,0.00,21.5,20.4,00.0,30.4,23.2,03.8,0000.0,0003.49,0001.47,0001.24
2022-12-16 13:31:00,,0823.0,5.05,0.00,21.5,19.9,00.0,30.4,23.0,03.8,0000.0,0003.37,0001.45,0001.25
2022-12-16 13:32:00,,0823.0,4.97,0.00,21.4,19.5,00.0,30.4,22.9,03.8,0000.0,0003.18,0001.39,0001.25
2022-12-16 13:33:00,,0823.0,5.02,0.00,21.3,19.2,00.0,30.4,22.8,03.9,0000.0,0003.08,0001.36,0001.26
2022-12-16 13:34:00,,0822.9,5.00,0.00,21.3,19.8,00.0,30.3,22.9,03.8,0000.0,0003.11,0001.38,0001.27
2022-12-16 13:35:00,,0822.9,4.97,0.00,21.4,21.0,00.0,30.3,23.2,03.7,0000.0,0003.08,0001.37,0001.27
2022-12-16 13:36:00,,0822.9,5.06,0.00,21.5,21.8,00.0,30.3,23.4,03.7,0000.0,0002.88,0001.40,0001.28
2022-12-16 13:37:00,,0823.1,4.95,0.00,21.6,21.4,00.0,30.3,23.4,03.7,0000.0,0001.73,0001.38,0001.29
2022-12-16 13:38:00,,0822.9,5.05,0.00,21.5,20.9,00.0,30.4,23.3,03.8,0000.0,0001.85,0001.43,0001.29
2022-12-16 13:39:00,,0823.0,4.94,0.00,21.5,20.5,00.0,30.4,23.2,03.9,0000.0,0001.90,0001.46,0001.30
2022-12-16 13:40:00,,0823.0,5.06,0.00,21.4,19.9,00.0,30.4,23.0,03.8,0000.0,0001.92,0001.47,0001.31
2022-12-16 13:41:00,,0823.1,4.97,0.00,21.3,19.5,00.0,30.4,22.8,03.8,0000.0,0001.96,0001.48,0001.31
2022-12-16 13:42:00,,0823.1,5.05,0.00,21.2,19.0,00.0,30.3,22.6,03.8,0000.0,0002.00,0001.49,0001.31
2022-12-16 13:43:00,,0823.1,4.99,0.00,21.2,19.6,00.0,30.3,22.7,03.9,0000.0,0002.13,0001.55,0001.32
2022-12-16 13:44:00,,0823.1,4.99,0.00,21.3,20.8,00.0,30.2,23.0,03.9,0000.0,0002.26,0001.57,0001.32
2022-12-16 13:45:00,,0823.1,4.99,0.00,21.4,21.7,00.0,30.2,23.3,03.8,0000.0,0002.27,0001.56,0001.32
2022-12-16 13:46:00,,0823.1,4.98,0.00,21.5,21.1,00.0,30.3,23.2,03.7,0000.0,0002.32,0001.55,0001.31
2022-12-16 13:47:00,,0823.1,5.04,0.00,21.4,20.3,00.0,30.3,22.9,03.7,0000.0,0002.40,0001.54,0001.31
2022-12-16 13:48:00,,0823.1,4.98,0.00,21.3,19.7,00.0,30.3,22.7,03.7,0000.0,0002.44,0001.54,0001.31
2022-12-16 13:49:00,,0823.1,4.97,0.00,21.2,19.4,00.0,30.3,22.7,03.7,0000.0,0002.32,0001.49,0001.30
2022-12-16 13:50:00,,0823.2,5.05,0.00,21.2,19.4,00.0,30.2,22.7,03.8,0000.0,0002.39,0001.46,0001.30
2022-12-16 13:51:00,,0823.3,4.99,0.00,21.2,20.1,00.0,30.2,22.9,03.8,0000.0,0003.41,0001.46,0001.29
2022-12-16 13:52:00,,0823.3,5.00,0.00,21.3,21.4,00.0,30.2,23.2,03.8,0000.0,0003.36,0001.44,0001.28
2022-12-16 13:53:00,,0823.2,4.97,0.00,21.5,21.9,00.0,30.2,23.4,03.7,0000.0,0003.35,0001.43,0001.28
2022-12-16 13:54:00,,0823.2,5.00,0.00,21.5,21.5,00.0,30.3,23.4,03.7,0000.0,0003.24,0001.39,0001.27
2022-12-16 13:55:00,,0823.2,5.04,0.00,21.5,21.1,00.0,30.3,23.3,03.7,0000.0,0003.17,0001.38,0001.27
2022-12-16 13:56:00,,0823.2,4.95,0.00,21.5,20.7,00.0,30.3,23.3,03.7,0000.0,0003.12,0001.38,0001.27
2022-12-16 13:57:00,,0823.3,5.04,0.00,21.5,20.4,00.0,30.3,23.2,03.7,0000.0,0003.12,0001.41,0001.28
2022-12-16 13:58:00,,0823.4,4.97,0.00,21.5,20.2,00.0,30.3,23.1,03.7,0000.0,0003.00,0001.42,0001.29
2022-12-16 13:59:00,,0823.3,4.98,0.00,21.4,20.0,00.0,30.3,23.1,03.7,0000.0,0002.96,0001.42,0001.29
